FW2837 Weather Reports


Display with metric or nautical units.
time (UTC)temp
F
wind
direction
speed
MPH
gust
MPH
rain 1hr
in
rain 24hr
in
rain mn
in
humidity
%
barometer
mb
20260505020903 57 180 0.0 0.0 0.00 0.00 0.00 78 1008.1
20260505014703 58 90 0.0 0.0 0.00 0.00 0.00 75 1008.1
20260505013703 59 23 0.0 0.0 0.00 0.00 0.00 74 1008.1
20260505012603 60 113 0.0 0.0 0.00 0.00 0.00 70 1007.8
20260505011503 61 135 0.0 0.0 0.00 0.00 0.00 70 1007.8
20260505010403 62 113 0.0 0.0 0.00 0.00 0.00 68 1007.8
20260505005304 63 45 0.0 0.0 0.00 0.00 0.00 65 1007.8
20260505004203 63 45 0.0 2.0 0.00 0.00 0.00 63 1007.5
20260505003103 64 23 0.0 0.0 0.00 0.00 0.00 61 1007.5
20260505002002 65 90 1.0 2.0 0.00 0.00 0.00 60 1007.5
20260505000903 66 45 0.0 4.0 0.00 0.00 0.00 58 1007.5
20260504235903 67 113 2.0 2.0 0.00 0.00 0.00 55 1007.5
20260504234803 68 113 1.0 4.0 0.00 0.00 0.00 54 1007.5
20260504233803 69 45 0.0 6.0 0.00 0.00 0.00 50 1007.1
20260504232703 70 248 2.0 4.0 0.00 0.00 0.00 50 1007.1
20260504231603 72 270 1.0 3.0 0.00 0.00 0.00 49 1007.5
20260504225503 74 293 2.0 4.0 0.00 0.00 0.00 45 1007.5
20260504223303 76 45 2.0 6.0 0.00 0.00 0.00 43 1007.1
20260504221103 77 338 3.0 5.0 0.00 0.00 0.00 41 1006.8
20260504214902 81 293 2.0 4.0 0.00 0.00 0.00 39 1007.1
20260504212802 82 248 2.0 5.0 0.00 0.00 0.00 37 1006.8
20260504211702 83 293 2.0 4.0 0.00 0.00 0.00 37 1007.1
20260504210604 83 203 4.0 4.0 0.00 0.00 0.00 37 1007.1
20260504205602 84 23 4.0 6.0 0.00 0.00 0.00 35 1007.1
20260504204503 85 90 3.0 4.0 0.00 0.00 0.00 35 1007.1
20260504203402 84 270 2.0 5.0 0.00 0.00 0.00 37 1007.1
20260504202304 85 0 3.0 6.0 0.00 0.00 0.00 35 1007.1
20260504201203 83 90 3.0 5.0 0.00 0.00 0.00 37 1008.1
20260504200203 83 225 1.0 5.0 0.00 0.00 0.00 40 1007.5
20260504195102 85 338 3.0 5.0 0.00 0.00 0.00 37 1008.1
20260504194003 83 338 4.0 6.0 0.00 0.00 0.00 37 1008.5
20260504192903 84 315 4.0 6.0 0.00 0.00 0.00 37 1008.5
20260504190703 83 113 2.0 4.0 0.00 0.00 0.00 37 1009.1
20260504184602 83 45 5.0 9.0 0.00 0.00 0.00 37 1009.1
20260504183503 83 23 3.0 6.0 0.00 0.00 0.00 37 1009.5
20260504182403 83 315 4.0 5.0 0.00 0.00 0.00 37 1009.5
20260504181402 83 45 3.0 7.0 0.00 0.00 0.00 37 1009.5
20260504175202 83 113 3.0 5.0 0.00 0.00 0.00 37 1009.8
20260504174103 83 203 2.0 4.0 0.00 0.00 0.00 37 1009.8
20260504171903 82 293 2.0 5.0 0.00 0.00 0.00 37 1010.2
20260504170802 81 338 2.0 6.0 0.00 0.00 0.00 35 1010.2
20260504160303 80 293 5.0 5.0 0.00 0.00 0.00 35 1011.5
20260504120303 63 113 2.0 4.0 0.00 0.00 0.00 55 1013.2
20260504100503 43 135 0.0 0.0 0.00 0.00 0.00 91 1013.5
20260504081102 41 68 0.0 0.0 0.00 0.00 0.00 88 1013.2
20260504045803 40 135 0.0 0.0 0.00 0.00 0.00 86 1013.2
20260504044502 40 270 0.0 0.0 0.00 0.00 0.00 86 1013.5
20260504043402 41 270 0.0 0.0 0.00 0.00 0.00 86 1013.2
20260504041103 41 90 0.0 0.0 0.00 0.00 0.00 86 1012.9
20260504034902 40 68 0.0 0.0 0.00 0.00 0.00 83 1012.2
20260504032603 41 113 0.0 0.0 0.00 0.00 0.00 78 1011.9
20260504030404 42 203 0.0 0.0 0.00 0.00 0.00 75 1011.9
20260504025304 43 90 0.0 0.0 0.00 0.00 0.00 73 1011.2
20260504024103 43 113 0.0 0.0 0.00 0.00 0.00 74 1011.5
20260504022902 44 90 0.0 0.0 0.00 0.00 0.00 73 1011.9